Trinidad, CO

9:00 PM MDT on October 22, 2019 (GMT -0600)
Stokes

Weather History for KTAD - September, 2019

Change the Weather History Date:

Wednesday, September 18, 2019

  Actual Average Record
Temperature  
Mean Temperature 69 °F 63 °F  
Max Temperature 86 °F 79 °F 94 °F (1954)
Min Temperature 52 °F 48 °F 30 °F (1971)
Degree Days  
Heating Degree Days 0 4  
Month to date heating degree days 2 35  
Since 1 July heating degree days 2 45  
Cooling Degree Days 4 2  
Month to date cooling degree days 160 62  
Year to date cooling degree days 996 704  
Growing Degree Days 18 (Base 50)    
Moisture  
Dew Point 40 °F    
Average Humidity 39    
Maximum Humidity 59    
Minimum Humidity 19    
Precipitation  
Precipitation 0.00 in 0.04 in 0.32 in (1982)
Month to date precipitation 0.67 0.84  
Sea Level Pressure  
Sea Level Pressure 29.87 in    
Wind  
Wind Speed 9 mph (WSW)    
Max Wind Speed 20 mph    
Max Gust Speed 24 mph    
Visibility 10 miles    
Events      
T = Trace of Precipitation, MM = Missing Value Source: NWS Daily Summary

Daily Weather History Graph

Daily Weather History Graph

Search for Another Location

Airport or City:

Astronomy

Sep. 18, 2019 Rise Set
Actual Time 6:41 AM MDT 7:00 PM MDT
Civil Twilight 6:15 AM MDT 7:26 PM MDT
Nautical Twilight 5:45 AM MDT 7:57 PM MDT
Astronomical Twilight 5:13 AM MDT 8:28 PM MDT
Moon 9:41 PM MDT (9/18) 10:42 AM MDT (9/18)
Length of Visible Light 13h 11m
Length of Day
12h 18m
Waning Gibbous, 82% of the Moon is Illuminated
Sep 18
Waning Gibbous
Sep 21
Last Quarter
Sep 28
New
Oct 5
First Quarter
Oct 13
Full

Hourly Weather History & Observations

Time (MDT) Temp. Dew Point Humidity Pressure Visibility Wind Dir Wind Speed Gust Speed Precip Events Conditions
12:54 AM 63.0 °F 39.9 °F 43% 29.82 in 10.0 mi West 15.0 mph - N/A   Clear
1:54 AM 63.0 °F 39.9 °F 43% 29.82 in 10.0 mi West 13.8 mph - N/A   Clear
2:54 AM 61.0 °F 39.9 °F 46% 29.83 in 10.0 mi West 15.0 mph - N/A   Clear
3:54 AM 59.0 °F 39.9 °F 49% 29.84 in 10.0 mi West 11.5 mph - N/A   Clear
4:54 AM 54.0 °F 39.9 °F 59% 29.86 in 10.0 mi NW 9.2 mph - N/A   Clear
5:54 AM 53.1 °F 39.9 °F 61% 29.88 in 10.0 mi NW 10.4 mph - N/A   Clear
6:54 AM 59.0 °F 41.0 °F 51% 29.93 in 10.0 mi NNE 4.6 mph - N/A   Clear
7:54 AM 61.0 °F 41.0 °F 48% 29.97 in 10.0 mi West 8.1 mph - N/A   Clear
8:54 AM 64.9 °F 43.0 °F 45% 29.97 in 10.0 mi Calm Calm - N/A   Clear
9:54 AM 69.1 °F 43.0 °F 39% 29.97 in 10.0 mi ENE 4.6 mph - N/A   Clear
10:54 AM 72.0 °F 43.0 °F 35% 29.96 in 10.0 mi Variable 4.6 mph - N/A   Clear
11:54 AM 75.9 °F 43.0 °F 31% 29.94 in 10.0 mi Variable 4.6 mph - N/A   Clear
12:54 PM 80.1 °F 42.1 °F 26% 29.89 in 10.0 mi East 9.2 mph - N/A   Clear
1:54 PM 82.9 °F 39.0 °F 21% 29.85 in 10.0 mi SSE 8.1 mph 19.6 mph N/A   Clear
2:54 PM 84.0 °F 39.0 °F 20% 29.83 in 10.0 mi SE 10.4 mph 17.3 mph N/A   Clear
3:54 PM 84.0 °F 39.9 °F 21% 29.81 in 10.0 mi East 8.1 mph - N/A   Scattered Clouds
4:54 PM 84.0 °F 39.0 °F 20% 29.81 in 10.0 mi East 10.4 mph - N/A   Clear
5:54 PM 84.0 °F 37.0 °F 19% 29.80 in 10.0 mi ESE 9.2 mph - N/A   Clear
6:54 PM 81.0 °F 37.0 °F 21% 29.80 in 10.0 mi South 12.7 mph - N/A   Partly Cloudy
7:54 PM 75.9 °F 36.0 °F 23% 29.83 in 10.0 mi SW 9.2 mph - N/A   Partly Cloudy
8:54 PM 66.0 °F 39.0 °F 37% 29.85 in 10.0 mi WSW 11.5 mph - N/A   Clear
9:54 PM 64.9 °F 39.0 °F 39% 29.87 in 10.0 mi NW 9.2 mph - N/A   Clear
10:54 PM 64.0 °F 37.0 °F 37% 29.87 in 10.0 mi WNW 6.9 mph - N/A   Clear
11:54 PM 60.1 °F 37.0 °F 42% 29.88 in 10.0 mi West 8.1 mph - N/A   Clear